Home > Weather > Zaandam > Past weeks

Flag for Netherlands Weather for the Past 2 Weeks in Zaandam, Netherlands

Now
37 °F

Passing clouds.


Feels Like: 28 °F
Forecast: 35 / 39 °F
Wind: 16 mph from Northeast

Location: Amsterdam Schiphol Airport

Current Time: Feb 13, 2016 at 11:10:08 PM

Latest Report: Feb 13, 2016 at 10:25 PM


Visibility: 6 mi

Pressure: 29.09 "Hg

Humidity: 93%

Dew point: 36 °F

Location of ZaandamLocation

Historic Weather in Zaandam — Graph

°F

Zaandam Temperature Yesterday

Maximum temperature yesterday: 43 °F (at 2:25 PM)
Minimum temperature yesterday: 32 °F (at 12:25 AM)
Average temperature yesterday: 37 °F

High & Low Weather Summary for the Past Weeks

 TemperatureHumidityPressure
High54 °F (Feb 1, 8:25 AM)100% (Jan 31, 4:55 PM)30.27 "Hg (Jan 31, 4:55 PM)
Low28 °F (Feb 13, 3:55 AM)57% (Jan 30, 8:55 PM)28.94 "Hg (Feb 9, 3:25 PM)
Average44 °F82%29.63 "Hg
* Reported Jan 29 9:25 PM — Feb 13 9:55 PM, Zaandam, Weather by CustomWeather, © 2016

Note: Actual official high and low records may vary slightly from our data, if they occured in-between our weather recording intervals... More about our weather records

Advertising

Zaandam Weather History for the Previous 24 Hours

 ConditionsComfort  
Time TempWeatherWind HumidityBarometerVisibility
9:55 PM
Sat, Feb 13
37 °FPassing clouds.18 mph93%29.09 "Hg5 mi
9:25 PM37 °FPassing clouds.17 mph93%29.09 "Hg5 mi
8:55 PM37 °FPassing clouds.15 mph93%29.09 "Hg5 mi
8:25 PM37 °FPassing clouds.14 mph93%29.09 "Hg5 mi
7:55 PM37 °FPassing clouds.15 mph87%29.12 "Hg6 mi
7:25 PM37 °FPassing clouds.16 mph87%29.12 "Hg6 mi
6:55 PM37 °FPassing clouds.16 mph87%29.12 "Hg6 mi
6:25 PM37 °FPassing clouds.13 mph87%29.12 "HgN/A
5:55 PM37 °FPassing clouds.14 mph87%29.12 "HgN/A
5:25 PM37 °FPassing clouds.13 mph87%29.12 "HgN/A
4:55 PM37 °FPassing clouds.15 mph87%29.12 "HgN/A
4:25 PM37 °FPassing clouds.15 mph87%29.12 "HgN/A
3:55 PM37 °FPassing clouds.16 mph87%29.12 "HgN/A
3:25 PM37 °FPassing clouds.15 mph87%29.15 "HgN/A
2:55 PM37 °FPassing clouds.13 mph87%29.15 "HgN/A
2:25 PM37 °FPassing clouds.15 mph81%29.15 "HgN/A
1:55 PM37 °FPassing clouds.15 mph87%29.18 "HgN/A
1:25 PM37 °FPassing clouds.16 mph81%29.18 "HgN/A
12:55 PM39 °FPassing clouds.13 mph75%29.21 "HgN/A
12:25 PM37 °FPassing clouds.14 mph81%29.21 "HgN/A
11:55 AM37 °FPassing clouds.13 mph87%29.24 "HgN/A
11:25 AM36 °FSunny.14 mph87%29.24 "Hg10 mi
10:55 AM36 °FPassing clouds.13 mph87%29.27 "HgN/A
10:25 AM34 °FPassing clouds.13 mph87%29.27 "Hg6 mi
9:55 AM34 °FPassing clouds.13 mph87%29.30 "Hg6 mi
9:25 AM34 °FPassing clouds.10 mph87%29.30 "Hg6 mi
8:55 AM32 °FClear.12 mph93%29.33 "Hg6 mi
8:25 AM30 °FClear.10 mph93%29.33 "Hg6 mi
7:55 AM32 °FClear.8 mph87%29.33 "Hg6 mi
7:25 AM30 °FClear.7 mph93%29.33 "Hg6 mi
6:55 AM32 °FClear.9 mph87%29.33 "Hg6 mi
6:25 AM32 °FClear.8 mph87%29.36 "Hg6 mi
5:55 AM32 °FClear.10 mph87%29.36 "Hg10 mi
5:25 AM32 °FClear.9 mph87%29.36 "Hg10 mi
4:55 AM32 °FClear.8 mph87%29.36 "Hg6 mi
4:25 AM30 °FClear.7 mph93%29.39 "Hg6 mi
3:55 AM28 °FClear.7 mph93%29.39 "Hg6 mi
3:25 AM30 °FClear.7 mph93%29.39 "Hg6 mi
2:55 AM30 °FPassing clouds.7 mph93%29.39 "Hg6 mi
2:25 AM30 °FClear.7 mph93%29.42 "Hg6 mi
1:55 AM30 °FClear.7 mph93%29.42 "Hg6 mi
1:25 AM32 °FClear.7 mph87%29.42 "Hg6 mi
12:55 AM30 °FClear.7 mph93%29.45 "Hg6 mi
12:25 AM32 °FClear.6 mph93%29.45 "Hg6 mi
11:55 PM
Fri, Feb 12
32 °FClear.6 mph93%29.45 "Hg6 mi
11:25 PM32 °FClear.5 mph93%29.45 "Hg10 mi
Weather by CustomWeather, © 2016

See weather overviewHow to use our weather pages